Simultaneous Nadir Overpasses (SNOs) Predictions

Prediction of SNOs between NPP and TERRA Satellite Orbit:

Table of predicted SNOs for the next 14.0 days since TLE Epoch: 4/1/2023
Index Date (NPP) Time (NPP) Lat,Lon (NPP) SZA (NPP ) Date (TERRA) Time (TERRA) Lat,Lon (TERRA) SZA (TERRA ) Distance(km) Time Diff (sec)
1 04/03/2023 11:52:05 -70.72, 177.86 114.63 04/03/2023 11:52:30 -70.73, 177.91 114.63 2.16 25
2 04/03/2023 12:42:49 70.59, -14.63 65.23 04/03/2023 12:41:53 70.61, -14.60 65.25 2.35 56
3 04/05/2023 23:55:27 71.15, 176.34 64.86 04/05/2023 23:56:38 71.01, 177.26 64.69 36.22 71
4 04/06/2023 00:46:02 -70.69, -15.58 115.63 04/06/2023 00:46:08 -70.68, -15.59 115.64 1.50 6
5 04/06/2023 01:36:44 70.47, 152.10 64.13 04/06/2023 01:35:32 70.51, 151.82 64.18 11.29 72
6 04/08/2023 12:49:17 70.77, -16.50 63.51 04/08/2023 12:50:19 70.75, -16.56 63.48 2.80 62
7 04/08/2023 13:39:59 -70.68, 150.97 116.60 04/08/2023 13:39:44 -70.69, 151.00 116.59 1.84 15
8 04/08/2023 14:30:28 69.77, -40.31 62.44 04/08/2023 14:29:21 69.80, -42.60 62.55 88.31 67
9 04/11/2023 01:43:14 70.77, 150.03 62.56 04/11/2023 01:43:54 70.77, 150.05 62.56 0.88 40
10 04/11/2023 02:33:56 -70.68, -42.50 117.55 04/11/2023 02:33:20 -70.65, -42.48 117.58 2.63 36
11 04/13/2023 14:37:09 70.73, -43.38 61.58 04/13/2023 14:37:28 70.74, -43.42 61.60 2.00 19
12 04/13/2023 15:27:51 -70.63, 124.09 118.53 04/13/2023 15:26:54 -70.62, 124.05 118.54 1.90 57



Historial Predications of SNOs between NPP and TERRA
